When you browse on this site, cookies collect data to enhance your experience and personalize the content and advertising you see.
Visit our Privacy Policy to learn more. By continuing to use the site, you agree to this use of cookies and data.
  • In Hungary
  • List of Countries
  • For 7 days
  • Water Temperature
  • Satellite Maps
  • Weather Map
  • News
  • Weather Widgets
  • user-avatar
    Login

    Hourly Weather Sao Mateus do Sul

    Today, 19 November, Monday

    Time Temperature Precipitation Wind Pressure Humidity
    00:00 +15°C° 0 mm 0 mps 694 mmHg 97%
    01:00 +15°C° 0.1 mm 0 mps 694 mmHg 97%
    02:00 +18°C° 0.1 mm 1 mps 694 mmHg 97%
    03:00 +18°C° 0.1 mm 1 mps 694 mmHg 96%
    04:00 +18°C° 0 mm 1 mps 694 mmHg 97%
    05:00 +18°C° 0 mm 1 mps 695 mmHg 97%
    06:00 +18°C° 0 mm 1 mps 695 mmHg 97%
    07:00 +19°C° 0 mm 1 mps 695 mmHg 89%
    08:00 +21°C° 0 mm 1 mps 696 mmHg 81%
    09:00 +21°C° 0 mm 2 mps 697 mmHg 72%
    10:00 +24°C° 0 mm 2 mps 697 mmHg 64%
    11:00 +26°C° 0 mm 2 mps 697 mmHg 57%
    12:00 +28°C° 0 mm 2 mps 697 mmHg 49%
    13:00 +28°C° 0 mm 2 mps 697 mmHg 48%
    14:00 +28°C° 0 mm 2 mps 696 mmHg 47%
    15:00 +28°C° 0 mm 2 mps 696 mmHg 46%
    16:00 +27°C° 0 mm 2 mps 696 mmHg 54%
    17:00 +25°C° 0 mm 2 mps 695 mmHg 61%
    18:00 +22°C° 0 mm 3 mps 695 mmHg 68%
    19:00 +20°C° 0 mm 3 mps 695 mmHg 74%
    20:00 +18°C° 0 mm 2 mps 696 mmHg 79%
    21:00 +16°C° 0 mm 2 mps 696 mmHg 84%
    22:00 +16°C° 0 mm 2 mps 696 mmHg 86%
    23:00 +15°C° 0 mm 1 mps 697 mmHg 89%

    Tomorrow, 20 November, Tuesday

    Time Temperature Precipitation Wind Pressure Humidity
    00:00 +14°C° 0 mm 1 mps 697 mmHg 91%
    01:00 +14°C° 0 mm 1 mps 696 mmHg 92%
    02:00 +14°C° 0 mm 1 mps 696 mmHg 93%
    03:00 +14°C° 0 mm 1 mps 696 mmHg 93%
    04:00 +14°C° 0 mm 1 mps 696 mmHg 91%
    05:00 +14°C° 0 mm 1 mps 696 mmHg 89%
    06:00 +15°C° 0 mm 1 mps 697 mmHg 87%
    07:00 +16°C° 0 mm 1 mps 697 mmHg 82%
    08:00 +18°C° 0 mm 1 mps 698 mmHg 76%
    09:00 +19°C° 0 mm 1 mps 698 mmHg 71%
    10:00 +21°C° 0 mm 2 mps 698 mmHg 62%
    11:00 +24°C° 0 mm 2 mps 698 mmHg 53%
    12:00 +27°C° 0 mm 2 mps 699 mmHg 44%
    13:00 +27°C° 0 mm 2 mps 698 mmHg 43%
    14:00 +28°C° 0 mm 2 mps 697 mmHg 42%
    15:00 +28°C° 0 mm 2 mps 696 mmHg 40%
    16:00 +27°C° 0 mm 2 mps 696 mmHg 46%
    17:00 +26°C° 0 mm 2 mps 696 mmHg 52%
    18:00 +24°C° 0 mm 2 mps 696 mmHg 59%
    19:00 +21°C° 0 mm 2 mps 696 mmHg 66%
    20:00 +19°C° 0 mm 2 mps 697 mmHg 74%
    21:00 +17°C° 0 mm 2 mps 697 mmHg 81%
    22:00 +16°C° 0 mm 2 mps 697 mmHg 86%
    23:00 +15°C° 0 mm 2 mps 698 mmHg 90%

    Day after tomorrow, 21 November, Wednesday

    Time Temperature Precipitation Wind Pressure Humidity
    00:00 +13°C° 0 mm 1 mps 698 mmHg 95%
    01:00 +13°C° 0 mm 1 mps 697 mmHg 96%
    02:00 +12°C° 0 mm 1 mps 697 mmHg 97%
    03:00 +12°C° 0 mm 1 mps 696 mmHg 98%
    04:00 +12°C° 0 mm 1 mps 697 mmHg 96%
    05:00 +12°C° 0 mm 1 mps 697 mmHg 94%
    06:00 +13°C° 0 mm 1 mps 697 mmHg 92%
    07:00 +15°C° 0 mm 1 mps 697 mmHg 83%
    08:00 +18°C° 0 mm 1 mps 698 mmHg 73%
    09:00 +20°C° 0 mm 1 mps 698 mmHg 64%
    10:00 +23°C° 0 mm 2 mps 698 mmHg 58%
    11:00 +25°C° 0 mm 2 mps 698 mmHg 52%
    12:00 +28°C° 0 mm 2 mps 698 mmHg 46%
    13:00 +28°C° 0 mm 2 mps 698 mmHg 45%
    14:00 +29°C° 0 mm 2 mps 697 mmHg 45%
    15:00 +29°C° 0 mm 2 mps 696 mmHg 45%
    16:00 +28°C° 0 mm 2 mps 696 mmHg 51%
    17:00 +27°C° 0 mm 2 mps 696 mmHg 57%
    18:00 +26°C° 0 mm 1 mps 696 mmHg 63%
    19:00 +24°C° 0 mm 2 mps 696 mmHg 71%
    20:00 +21°C° 0 mm 2 mps 696 mmHg 79%
    21:00 +19°C° 0 mm 2 mps 696 mmHg 88%
    22:00 +18°C° 0 mm 2 mps 696 mmHg 91%
    23:00 +18°C° 0 mm 1 mps 696 mmHg 94%

    22 November, Thursday

    Time Temperature Precipitation Wind Pressure Humidity
    00:00 +16°C° 0 mm 1 mps 696 mmHg 97%
    01:00 +16°C° 0 mm 1 mps 696 mmHg 97%
    02:00 +16°C° 0 mm 1 mps 695 mmHg 97%
    03:00 +16°C° 0 mm 1 mps 695 mmHg 97%
    04:00 +16°C° 0 mm 1 mps 695 mmHg 96%
    05:00 +18°C° 0 mm 1 mps 695 mmHg 95%
    06:00 +18°C° 0 mm 1 mps 696 mmHg 94%
    07:00 +20°C° 0 mm 1 mps 696 mmHg 88%
    08:00 +21°C° 0 mm 1 mps 697 mmHg 82%
    09:00 +23°C° 0 mm 1 mps 697 mmHg 77%
    10:00 +24°C° 0.1 mm 1 mps 697 mmHg 73%
    11:00 +25°C° 0.1 mm 1 mps 697 mmHg 69%
    12:00 +26°C° 0.1 mm 1 mps 696 mmHg 65%
    13:00 +28°C° 0.1 mm 1 mps 696 mmHg 60%
    14:00 +29°C° 0.1 mm 1 mps 695 mmHg 55%
    15:00 +30°C° 0.1 mm 1 mps 695 mmHg 50%
    16:00 +29°C° 0.2 mm 1 mps 695 mmHg 58%
    17:00 +26°C° 0.2 mm 0 mps 694 mmHg 65%
    18:00 +24°C° 0.2 mm 0 mps 694 mmHg 73%
    19:00 +24°C° 0 mm 1 mps 694 mmHg 80%
    20:00 +23°C° 0 mm 1 mps 694 mmHg 87%
    21:00 +21°C° 0 mm 1 mps 695 mmHg 94%
    22:00 +21°C° 0 mm 1 mps 695 mmHg 95%
    23:00 +20°C° 0 mm 1 mps 694 mmHg 97%

    23 November, Friday

    Time Temperature Precipitation Wind Pressure Humidity
    00:00 +20°C° 0 mm 1 mps 694 mmHg 98%
    01:00 +20°C° 0 mm 1 mps 694 mmHg 98%
    02:00 +20°C° 0 mm 1 mps 694 mmHg 98%
    03:00 +20°C° 0 mm 1 mps 693 mmHg 98%
    04:00 +20°C° 0 mm 1 mps 694 mmHg 98%
    05:00 +20°C° 0 mm 1 mps 694 mmHg 98%
    06:00 +18°C° 0 mm 0 mps 694 mmHg 98%
    07:00 +22°C° 0 mm 1 mps 695 mmHg 89%
    08:00 +24°C° 0 mm 1 mps 695 mmHg 80%
    09:00 +26°C° 0 mm 1 mps 696 mmHg 72%
    10:00 +27°C° 0.3 mm 1 mps 695 mmHg 66%
    11:00 +28°C° 0.3 mm 1 mps 695 mmHg 61%
    12:00 +30°C° 0.3 mm 2 mps 695 mmHg 56%
    13:00 +30°C° 0.4 mm 1 mps 694 mmHg 55%
    14:00 +30°C° 0.4 mm 1 mps 694 mmHg 54%
    15:00 +31°C° 0.4 mm 1 mps 693 mmHg 52%
    16:00 +28°C° 0.9 mm 1 mps 693 mmHg 65%
    17:00 +26°C° 0.9 mm 1 mps 693 mmHg 77%
    18:00 +23°C° 0.9 mm 1 mps 692 mmHg 90%
    19:00 +23°C° 0 mm 1 mps 693 mmHg 91%
    20:00 +20°C° 0 mm 0 mps 693 mmHg 92%
    21:00 +19°C° 0 mm 0 mps 693 mmHg 93%
    22:00 +19°C° 0.3 mm 0 mps 693 mmHg 94%
    23:00 +19°C° 0.3 mm 0 mps 693 mmHg 95%

    24 November, Saturday

    Time Temperature Precipitation Wind Pressure Humidity
    00:00 +18°C° 0.3 mm 0 mps 693 mmHg 96%
    01:00 +18°C° 0.6 mm 0 mps 692 mmHg 96%
    02:00 +18°C° 0.6 mm 0 mps 692 mmHg 96%
    03:00 +18°C° 0.6 mm 0 mps 692 mmHg 97%
    04:00 +18°C° 0.9 mm 0 mps 692 mmHg 97%
    05:00 +18°C° 0.9 mm 0 mps 693 mmHg 97%
    06:00 +18°C° 0.9 mm 0 mps 693 mmHg 97%
    07:00 +20°C° 0.7 mm 1 mps 693 mmHg 96%
    08:00 +21°C° 0.7 mm 1 mps 694 mmHg 95%
    09:00 +21°C° 0.7 mm 1 mps 694 mmHg 94%
    10:00 +22°C° 0.2 mm 1 mps 694 mmHg 88%
    11:00 +24°C° 0.2 mm 1 mps 694 mmHg 82%
    12:00 +25°C° 0.2 mm 1 mps 694 mmHg 76%
    13:00 +25°C° 0.1 mm 1 mps 693 mmHg 74%
    14:00 +25°C° 0.1 mm 1 mps 693 mmHg 72%
    15:00 +25°C° 0.1 mm 1 mps 692 mmHg 71%
    16:00 +24°C° 0 mm 1 mps 692 mmHg 76%
    17:00 +23°C° 0 mm 1 mps 692 mmHg 81%
    18:00 +22°C° 0 mm 1 mps 692 mmHg 86%
    19:00 +21°C° 0 mm 1 mps 692 mmHg 90%
    20:00 +21°C° 0 mm 1 mps 692 mmHg 93%
    21:00 +20°C° 0 mm 1 mps 692 mmHg 97%
    22:00 +19°C° 0 mm 1 mps 692 mmHg 97%
    23:00 +19°C° 0 mm 1 mps 692 mmHg 97%
    Show more